Fairchild AFB, WA

10:08 PM PST on February 25, 2017 (GMT -0800)
Fairchild Air Force Base

Weather History for KSKA - November, 2012

Change the Weather History Date:

Friday, November 16, 2012

  Actual Average Record
Temperature  
Mean Temperature 38 °F -  
Max Temperature 43 °F 40 °F 50 °F (2002)
Min Temperature 32 °F 28 °F 12 °F (2014)
Degree Days  
Heating Degree Days 28    
Moisture  
Dew Point 36 °F    
Average Humidity 100    
Maximum Humidity 100    
Minimum Humidity 99    
Precipitation  
Precipitation 0.00 in - - ()
Sea Level Pressure  
Sea Level Pressure 29.96 in    
Wind  
Wind Speed 4 mph (ENE)    
Max Wind Speed 9 mph    
Max Gust Speed -    
Visibility 7 miles    
Events      
Averages and records for this station are not official NWS values.
T = Trace of Precipitation, MM = Missing Value Source: NWS Daily Summary

Daily Weather History Graph

Daily Weather History Graph

Search for Another Location

Airport or City:

Trip Planner

Search our weather history database for the weather conditions in past years. The results will help you decide how hot, cold, wet, or windy it might be!

Date:

Astronomy

Nov. 16, 2012 Rise Set
Actual Time 6:58 AM PST 4:12 PM PST
Civil Twilight 6:24 AM PST 4:46 PM PST
Nautical Twilight 5:46 AM PST 5:23 PM PST
Astronomical Twilight 5:10 AM PST 6:00 PM PST
Moon 10:00 AM PST (11/16) 7:14 PM PST (11/16)
Length of Visible Light 10h 21m
Length of Day
9h 14m
Waxing Crescent, 12% of the Moon is Illuminated
Nov 16
Waxing Crescent
Nov 20
First Quarter
Nov 28
Full
Dec 6
Last Quarter
Dec 13
New

Hourly Weather History & Observations

Time (PST) Temp. Windchill Dew Point Humidity Pressure Visibility Wind Dir Wind Speed Gust Speed Precip Events Conditions
12:02 AM 32.0 °F 27.5 °F 32.0 °F 100% 29.97 in 10.0 mi NNE 4.6 mph - N/A   Overcast
12:17 AM 32.0 °F 27.5 °F 32.0 °F 100% 29.97 in 10.0 mi ENE 4.6 mph - N/A   Overcast
12:19 AM 32.0 °F 26.4 °F 32.0 °F 100% 29.98 in 10.0 mi ENE 5.8 mph - N/A   Overcast
12:29 AM 32.0 °F 27.5 °F 32.0 °F 100% 29.97 in 10.0 mi ENE 4.6 mph - N/A   Overcast
12:36 AM 32.0 °F 28.7 °F 32.0 °F 100% 29.97 in 10.0 mi ENE 3.5 mph - N/A   Overcast
12:41 AM 32.0 °F 27.5 °F 32.0 °F 100% 29.97 in 10.0 mi ENE 4.6 mph - N/A   Overcast
12:56 AM 33.8 °F 30.8 °F 33.8 °F 100% 29.97 in 10.0 mi ENE 3.5 mph - N/A   Overcast
12:58 AM 33.8 °F - 33.8 °F 100% 30.03 in 10.0 mi ENE 2.3 mph - 0.00 in   Overcast
1:13 AM 32.0 °F - 32.0 °F 100% 29.98 in 10.0 mi ENE 2.3 mph - N/A   Overcast
1:22 AM 33.8 °F 28.6 °F 33.8 °F 100% 29.97 in 10.0 mi East 5.8 mph - N/A   Overcast
1:37 AM 33.8 °F 30.8 °F 33.8 °F 100% 29.97 in 10.0 mi ENE 3.5 mph - N/A   Overcast
1:40 AM 33.8 °F 30.8 °F 33.8 °F 100% 29.97 in 10.0 mi NE 3.5 mph - N/A   Overcast
1:45 AM 33.8 °F 29.6 °F 33.8 °F 100% 29.96 in 10.0 mi ENE 4.6 mph - N/A   Overcast
1:58 AM 34.9 °F 30.8 °F 34.9 °F 100% 30.02 in 10.0 mi NE 4.6 mph - 0.00 in   Overcast
2:13 AM 35.6 °F 32.8 °F 35.6 °F 100% 29.97 in 2.5 mi NE 3.5 mph - N/A   Overcast
2:18 AM 35.6 °F 32.8 °F 35.6 °F 100% 29.97 in 1.2 mi NE 3.5 mph - N/A   Overcast
2:23 AM 35.6 °F - 35.6 °F 100% 29.97 in 0.8 mi North 2.3 mph - N/A   Mist
2:33 AM 35.6 °F 32.8 °F 35.6 °F 100% 29.97 in 1.0 mi NNW 3.5 mph - N/A   Mist
2:43 AM 35.6 °F 32.8 °F 35.6 °F 100% 29.96 in 1.8 mi ENE 3.5 mph - N/A   Overcast
2:47 AM 33.8 °F 28.6 °F 33.8 °F 100% 29.96 in 7.0 mi East 5.8 mph - N/A   Overcast
2:52 AM 35.6 °F 28.6 °F 35.6 °F 100% 29.95 in 1.5 mi East 9.2 mph - N/A   Overcast
2:57 AM 35.6 °F 29.9 °F 35.6 °F 100% 29.95 in 0.8 mi East 6.9 mph - N/A   Mist
2:58 AM 35.6 °F 29.9 °F 35.6 °F 100% 30.00 in 0.8 mi East 6.9 mph - 0.00 in   Mist
3:12 AM 35.6 °F - 35.6 °F 100% 29.96 in 0.8 mi Calm Calm - N/A   Mist
3:22 AM 35.6 °F - 35.6 °F 100% 29.95 in 1.0 mi SE 2.3 mph - N/A   Mist
3:27 AM 35.6 °F - 35.6 °F 100% 29.95 in 1.2 mi Variable 2.3 mph - N/A   Overcast
3:32 AM 35.6 °F - 35.6 °F 100% 29.95 in 1.2 mi Calm Calm - N/A   Overcast
3:37 AM 35.6 °F 32.8 °F 35.6 °F 100% 29.95 in 1.5 mi ESE 3.5 mph - N/A   Overcast
3:42 AM 35.6 °F 32.8 °F 35.6 °F 100% 29.95 in 1.8 mi East 3.5 mph - N/A   Overcast
3:47 AM 35.6 °F 32.8 °F 35.6 °F 100% 29.95 in 2.0 mi East 3.5 mph - N/A   Overcast
3:52 AM 35.6 °F 32.8 °F 35.6 °F 100% 29.94 in 2.5 mi ESE 3.5 mph - N/A   Overcast
3:58 AM 35.8 °F 30.9 °F 35.8 °F 100% 30.00 in 2.5 mi ESE 5.8 mph - 0.00 in   Overcast
4:00 AM 35.6 °F 31.7 °F 35.6 °F 100% 29.95 in 3.0 mi East 4.6 mph - N/A   Overcast
4:10 AM 35.6 °F 31.7 °F 35.6 °F 100% 29.95 in 10.0 mi ESE 4.6 mph - N/A   Overcast
4:12 AM 35.6 °F 31.7 °F 35.6 °F 100% 29.95 in 8.0 mi ESE 4.6 mph - N/A   Overcast
4:22 AM 35.6 °F - 35.6 °F 100% 29.95 in 2.0 mi Calm Calm - N/A   Overcast
4:27 AM 35.6 °F - 35.6 °F 100% 29.95 in 1.5 mi Calm Calm - N/A   Overcast
4:32 AM 35.6 °F - 35.6 °F 100% 29.95 in 1.5 mi East 2.3 mph - N/A   Overcast
4:37 AM 35.6 °F - 35.6 °F 100% 29.95 in 1.2 mi NE 2.3 mph - N/A   Overcast
4:42 AM 35.6 °F - 35.6 °F 100% 29.94 in 1.2 mi ENE 2.3 mph - N/A   Overcast
4:45 AM 35.6 °F 32.8 °F 35.6 °F 100% 29.94 in 1.0 mi ENE 3.5 mph - N/A   Mist
4:50 AM 35.6 °F 32.8 °F 35.6 °F 100% 29.94 in 1.2 mi NE 3.5 mph - N/A   Overcast
4:58 AM 35.8 °F 31.9 °F 35.8 °F 100% 30.00 in 1.2 mi ENE 4.6 mph - 0.00 in   Overcast
5:16 AM 35.6 °F 31.7 °F 35.6 °F 100% 29.94 in 1.2 mi NE 4.6 mph - N/A   Overcast
5:21 AM 35.6 °F 31.7 °F 35.6 °F 100% 29.94 in 1.2 mi NE 4.6 mph - N/A   Overcast
5:26 AM 35.6 °F 31.7 °F 35.6 °F 100% 29.94 in 1.2 mi NE 4.6 mph - N/A   Overcast
5:31 AM 35.6 °F 31.7 °F 35.6 °F 100% 29.94 in 1.5 mi NE 4.6 mph - N/A   Overcast
5:36 AM 35.6 °F 30.7 °F 35.6 °F 100% 29.94 in 3.0 mi ENE 5.8 mph - N/A   Overcast
5:41 AM 35.6 °F 30.7 °F 35.6 °F 100% 29.93 in 6.0 mi ENE 5.8 mph - N/A   Overcast
5:46 AM 35.6 °F 29.9 °F 35.6 °F 100% 29.93 in 10.0 mi ENE 6.9 mph - N/A   Overcast
5:58 AM 35.1 °F 30.1 °F 35.1 °F 100% 29.99 in 4.0 mi ENE 5.8 mph - 0.00 in   Overcast
6:03 AM 35.6 °F 30.7 °F 35.6 °F 100% 29.93 in 4.0 mi NE 5.8 mph - N/A   Overcast
6:08 AM 35.6 °F 31.7 °F 35.6 °F 100% 29.93 in 7.0 mi NE 4.6 mph - N/A   Overcast
6:43 AM 33.8 °F 30.8 °F 33.8 °F 100% 29.93 in 10.0 mi NE 3.5 mph - N/A   Overcast
6:58 AM 34.3 °F - 34.3 °F 100% 30.00 in 10.0 mi ENE 2.3 mph - N/A   Overcast
7:08 AM 33.8 °F - 33.8 °F 100% 29.94 in 10.0 mi East 2.3 mph - N/A   Overcast
7:18 AM 33.8 °F - 33.8 °F 100% 29.94 in 10.0 mi East 2.3 mph - N/A   Overcast
7:41 AM 33.8 °F 30.8 °F 33.8 °F 100% 29.94 in 10.0 mi ENE 3.5 mph - N/A   Overcast
7:58 AM 33.6 °F 30.6 °F 33.6 °F 100% 30.01 in 7.0 mi NNE 3.5 mph - 0.00 in   Mostly Cloudy
7:59 AM 32.0 °F 28.7 °F 32.0 °F 100% 29.95 in 7.0 mi NNE 3.5 mph - N/A   Mostly Cloudy
8:33 AM 33.8 °F 28.6 °F 33.8 °F 100% 29.95 in 10.0 mi ENE 5.8 mph - N/A   Scattered Clouds
8:47 AM 33.8 °F 28.6 °F 33.8 °F 100% 29.95 in 10.0 mi NE 5.8 mph - N/A   Clear
8:51 AM 33.8 °F 29.6 °F 33.8 °F 100% 29.95 in 10.0 mi NE 4.6 mph - N/A   Partly Cloudy
8:58 AM 34.5 °F 31.6 °F 34.5 °F 100% 30.02 in 5.0 mi NE 3.5 mph - 0.00 in   Mostly Cloudy
9:03 AM 33.8 °F 30.8 °F 33.8 °F 100% 29.96 in 7.0 mi NE 3.5 mph - N/A   Scattered Clouds
9:36 AM 35.6 °F 32.8 °F 35.6 °F 100% 29.97 in 10.0 mi North 3.5 mph - N/A   Scattered Clouds
9:41 AM 35.6 °F 32.8 °F 35.6 °F 100% 29.97 in 10.0 mi North 3.5 mph - N/A   Mostly Cloudy
9:52 AM 35.6 °F 32.8 °F 35.6 °F 100% 29.97 in 10.0 mi North 3.5 mph - N/A   Mostly Cloudy
9:58 AM 35.8 °F 33.0 °F 35.8 °F 100% 30.04 in 10.0 mi North 3.5 mph - 0.00 in   Mostly Cloudy
10:15 AM 35.6 °F 32.8 °F 35.6 °F 100% 29.96 in 10.0 mi East 3.5 mph - N/A   Light Drizzle
10:25 AM 37.4 °F 33.8 °F 37.4 °F 100% 29.96 in 10.0 mi Variable 4.6 mph - N/A   Light Drizzle
10:28 AM 37.4 °F 32.8 °F 37.4 °F 100% 29.96 in 10.0 mi ENE 5.8 mph - N/A   Scattered Clouds
10:50 AM 39.2 °F 37.0 °F 39.2 °F 100% 29.96 in 10.0 mi ESE 3.5 mph - N/A   Light Drizzle
10:58 AM 38.7 °F 36.3 °F 38.7 °F 100% 30.01 in 10.0 mi SE 3.5 mph - 0.00 in   Light Drizzle
11:21 AM 39.2 °F 35.0 °F 39.2 °F 100% 29.94 in 10.0 mi Variable 5.8 mph - N/A   Scattered Clouds
11:31 AM 41.0 °F 39.0 °F 41.0 °F 100% 29.94 in 10.0 mi ESE 3.5 mph - N/A   Mostly Cloudy
11:56 AM 41.0 °F 38.0 °F 41.0 °F 100% 29.94 in 10.0 mi ESE 4.6 mph - N/A   Mostly Cloudy
11:58 AM 41.9 °F 40.0 °F 41.7 °F 99% 30.00 in 10.0 mi ESE 3.5 mph - 0.00 in   Mostly Cloudy
12:03 PM 41.0 °F - 41.0 °F 100% 29.94 in 10.0 mi East 2.3 mph - N/A   Mostly Cloudy
12:59 PM 42.8 °F 41.1 °F 42.8 °F 100% 29.99 in 10.0 mi ESE 3.5 mph - N/A   Overcast
1:27 PM 42.8 °F 39.3 °F 42.8 °F 100% 29.93 in 10.0 mi SE 5.8 mph - N/A   Overcast
1:42 PM 42.8 °F 40.1 °F 42.8 °F 100% 29.93 in 10.0 mi South 4.6 mph - N/A   Overcast
1:47 PM 42.8 °F 41.1 °F 42.8 °F 100% 29.93 in 10.0 mi South 3.5 mph - N/A   Overcast
1:58 PM 43.7 °F 40.3 °F 43.7 °F 100% 29.98 in 10.0 mi South 5.8 mph - 0.00 in   Overcast
2:18 PM 42.8 °F 41.1 °F 42.8 °F 100% 29.92 in 10.0 mi South 3.5 mph - N/A   Scattered Clouds
2:58 PM 43.3 °F - 43.3 °F 100% 29.98 in 10.0 mi South 2.3 mph - N/A   Overcast
3:58 PM 41.5 °F 38.6 °F 41.5 °F 100% 29.98 in 10.0 mi NNE 4.6 mph - N/A   Partly Cloudy
4:28 PM 39.2 °F 35.0 °F 39.2 °F 100% 29.93 in 10.0 mi North 5.8 mph - N/A   Mostly Cloudy
4:50 PM 39.2 °F 35.9 °F 39.2 °F 100% 29.93 in 10.0 mi North 4.6 mph - N/A   Overcast
4:58 PM 38.7 °F 35.2 °F 38.7 °F 100% 29.99 in 10.0 mi North 4.6 mph - 0.00 in   Overcast
4:59 PM 39.2 °F 35.9 °F 39.2 °F 100% 29.92 in 10.0 mi NNE 4.6 mph - N/A   Overcast
5:24 PM 37.4 °F 32.8 °F 37.4 °F 100% 29.92 in 10.0 mi NNE 5.8 mph - N/A   Scattered Clouds
5:58 PM 37.6 °F 35.1 °F 37.6 °F 100% 29.98 in 10.0 mi NNE 3.5 mph - 0.00 in   Partly Cloudy
6:32 PM 37.4 °F - 37.4 °F 100% 29.92 in 10.0 mi ENE 2.3 mph - N/A   Scattered Clouds
6:41 PM 35.6 °F - 35.6 °F 100% 29.92 in 10.0 mi East 2.3 mph - N/A   Partly Cloudy
6:58 PM 34.9 °F - 34.9 °F 100% 29.98 in 4.0 mi ESE 2.3 mph - 0.00 in   Clear
7:58 PM 35.2 °F 32.4 °F 35.2 °F 100% 29.98 in 10.0 mi NNE 3.5 mph - N/A   Clear
8:58 PM 33.3 °F 27.9 °F 33.3 °F 100% 29.98 in 9.0 mi ENE 5.8 mph - N/A   Clear
9:16 PM 32.0 °F 26.4 °F 32.0 °F 100% 29.91 in 10.0 mi NE 5.8 mph - N/A   Scattered Clouds
9:32 PM 33.8 °F 27.7 °F 33.8 °F 100% 29.91 in 10.0 mi ENE 6.9 mph - N/A   Mostly Cloudy
9:58 PM 35.2 °F 28.8 °F 35.2 °F 100% 29.96 in 10.0 mi NE 8.1 mph - 0.00 in   Overcast
10:58 PM 35.8 °F 29.4 °F 35.8 °F 100% 29.96 in 10.0 mi NNE 8.1 mph - N/A   Overcast
11:58 PM 34.2 °F 27.5 °F 34.2 °F 100% 29.96 in 10.0 mi NNE 8.1 mph - N/A   Overcast